Погода в Коелге

Россия / Челябинская область     54°38′55″N   60°54′10″E
темп.,
°C
ветер,
м/с
пор.,
м/с
влажн.,
%
обл.,
%
осадки,
мм/ч
давл.,
гПа
погр.,
м
17 июня, чт
чт1723:00+17юз128299 1.1 101319
02:00+16з4881100 0.0 1013134
05:00+17зюз2270100 0.0 101136
08:00+20ююв4866100 0.0 1008208
11:00+26юз3547100 0.0 1007830
14:00+27з454676 0.0 10061373
17:00+18ссз91195100 10.6 1006403
20:00+17сз358996 5.6 1007209
18 июня, пт
пт1823:00+15ссз7148732 5.7 1008484
02:00+13ссз614823 0.0 1009378
05:00+13ссз61471100 0.0 1010438
08:00+14ссз811645 0.0 1012683
11:00+15с811581 0.0 10141213
14:00+17ссв8105112 0.0 10161914
17:00+17с712440 0.0 10172117
20:00+15св35625 0.0 1018158
19 июня, сб
сб1923:00+13зюз455148 0.0 102090
02:00+10зсз48695 0.0 1020131
05:00+9сз411675 0.0 1021205
08:00+14сз6125793 0.0 1021552
11:00+15ссз61159100 0.0 10211024
14:00+17сз61057100 0.0 10201312
17:00+16сз5116199 0.0 1019722
20:00+17сз71268100 0.1 1017921
20 июня, вс
вс2023:00+13зсз31097100 4.0 1017456
02:00+15зсз51196100 2.7 1015357
05:00+15зсз4896100 3.2 1014238
08:00+17зсз5119249 0.2 1013470
11:00+21сз71178100 0.3 1013986
14:00+24ссз8146697 1.1 10121746
17:00+25ссз711546 1.3 10121835
20:00+21ссз513600 0.0 1014400
21 июня, пн
пн2123:00+16ссз514580 0.0 1016313
02:00+12ссз47670 0.0 1018102
05:00+11ссз35680 0.0 101983
08:00+17ссз35570 0.0 1019296
11:00+21ссз46465 0.0 10191159
14:00+24ссз46444 0.0 10181432
17:00+26сз48457 0.0 10162175
20:00+23зсз510665 0.0 1015285